GW0011 Weather Reports


time (UTC)temp
C
wind
direction
speed
KPH
gust
KPH
rain 1hr
cm
rain 24hr
cm
rain mn
cm
humidity
%
barometer
mb
20260503200042 16 5 12.9 24.1 0.00 0.00 0.00 37 1015.8
20260503194553 16 270 11.3 20.9 0.00 0.00 0.00 39 1015.9
20260503193050 15 301 12.9 27.4 0.00 0.00 0.00 40 1016.1
20260503191545 15 294 16.1 25.7 0.00 0.00 0.00 39 1016.3
20260503190045 15 352 4.8 25.7 0.00 0.00 0.00 41 1016.4
20260503184542 15 299 11.3 29.0 0.00 0.00 0.00 42 1016.6
20260503183048 15 290 11.3 25.7 0.00 0.00 0.00 42 1016.7
20260503181559 15 224 6.4 29.0 0.00 0.00 0.00 44 1016.7
20260503180046 15 279 9.7 25.7 0.00 0.00 0.00 42 1016.8
20260503174545 15 301 9.7 25.7 0.00 0.00 0.00 42 1016.8
20260503173056 14 277 14.5 25.7 0.00 0.00 0.00 44 1017.0
20260503171546 13 313 12.9 30.6 0.00 0.00 0.00 45 1017.1
20260503081549 11 281 11.3 20.9 0.00 0.05 0.00 63 1013.2
20260503071549 10 264 4.8 9.7 0.00 0.05 0.00 76 1012.6
20260503054547 10 262 4.8 9.7 0.00 0.05 0.00 71 1012.0
20260503053046 11 274 1.6 6.4 0.00 0.05 0.00 68 1012.1
20260503051545 12 261 3.2 11.3 0.00 0.05 0.00 64 1012.3
20260503050045 12 275 8.0 14.5 0.00 0.05 0.00 60 1012.2
20260503044541 12 265 6.4 17.7 0.00 0.05 0.00 60 1012.2
20260503043049 12 305 4.8 12.9 0.00 0.05 0.00 61 1012.3
20260503041546 12 268 4.8 11.3 0.00 0.05 0.00 62 1012.2
20260503040047 12 313 3.2 11.3 0.00 0.05 0.00 62 1012.2
20260503034541 12 295 4.8 14.5 0.00 0.05 0.05 63 1012.3
20260503033053 12 257 3.2 9.7 0.00 0.05 0.05 64 1012.3
20260503031543 12 306 1.6 9.7 0.00 0.05 0.05 64 1012.1
20260503030047 13 284 3.2 9.7 0.00 0.05 0.05 63 1012.0
20260503024546 13 266 4.8 14.5 0.00 0.05 0.05 61 1012.3
20260503023055 13 284 4.8 11.3 0.00 0.05 0.05 61 1012.2
20260503021548 13 280 4.8 14.5 0.00 0.05 0.05 60 1012.3
20260503020046 13 302 3.2 12.9 0.00 0.05 0.05 60 1012.2
20260503014549 12 265 4.8 11.3 0.00 0.05 0.05 60 1012.2
20260503013046 13 277 3.2 11.3 0.00 0.05 0.05 59 1012.0
20260503011554 13 312 4.8 11.3 0.00 0.05 0.05 58 1011.7
20260503010051 13 288 3.2 11.3 0.00 0.05 0.05 59 1011.8
20260503004544 13 280 4.8 16.1 0.00 0.05 0.05 59 1011.7
20260503003058 13 316 3.2 16.1 0.00 0.05 0.05 59 1011.5
20260503001601 13 273 4.8 16.1 0.00 0.05 0.05 58 1011.4
20260503000111 13 324 8.0 19.3 0.00 0.05 0.05 55 1011.2
20260502234545 13 330 8.0 19.3 0.00 0.05 0.05 50 1011.1
20260502233050 13 349 4.8 14.5 0.00 0.05 0.05 49 1010.9
20260502231546 13 244 3.2 19.3 0.00 0.05 0.05 49 1010.7
20260502230044 13 279 8.0 20.9 0.00 0.05 0.05 50 1010.8
20260502224542 13 333 4.8 14.5 0.00 0.05 0.05 58 1010.8
20260502223040 13 252 4.8 17.7 0.00 0.05 0.05 59 1011.0
20260502221543 13 346 4.8 20.9 0.00 0.05 0.05 60 1010.9
20260502220047 13 339 6.4 19.3 0.00 0.05 0.05 57 1010.9
20260502214543 13 340 11.3 24.1 0.00 0.05 0.05 55 1010.8
20260502213047 13 279 11.3 22.5 0.00 0.05 0.05 61 1010.8
20260502211550 13 288 8.0 25.7 0.00 0.05 0.05 63 1010.6
20260502210043 13 306 9.7 19.3 0.00 0.05 0.05 63 1010.7
20260502204546 13 281 6.4 17.7 0.00 0.05 0.05 62 1010.6
20260502203107 13 261 8.0 20.9 0.00 0.05 0.05 61 1010.7
20260502201550 13 267 9.7 24.1 0.00 0.05 0.05 61 1010.7